CZ-3B DEB, 40184

Orbit data source: Space-Track

CZ-3B DEB, 40184 is space debris in HEO originally from a launch on Mon, 19 Dec 2011 UTC launched from the Xichang Space Center, China (XSC). Debris objects in space refer to the collection of defunct objects orbiting the Earth. Examples of debris include non-operational satellites, rocket bodies, and fragments generated from explosions, collisions, or faulty payload assembly.

Loading next visibility...
Identifier
40184, 2011-077H
Orbit
HEO
Country
Flag of CNCN / PRC
Related business
Manufacturer
CALT
Mission
Spacecraft
Bus & Motor
Unknown
Mass
Unknown
Launch date (UTC)
2011-12-19 (15 years ago)
Launch vehicle
Unknown
Launch site
Xichang Space Center, China (XSC)
Object type
Payload
Rocket body
Debris
Shape & HBR
Unknown shape, 0.4 m
Radar Cross Section
Medium (>0.1 m² and <1 m²)

Expand to show TLE details & history
Last TLE update: 1 day ago

TLE from 1 day ago
0 CZ-3B DEB
1 40184U 11077H   26255.87182882  .00000782  00000-0  18379-2 0  9994
2 40184  21.3491 167.7942 7514672 135.2831 317.8697  1.93675396 81683
Epoch: 2026-09-12T20:55Z
TLE epoch observation values (Epoch: 2026-09-12T20:55:26.010Z)
Latitude
0.00004°
Longitude
-138.06802°
Altitude
19,106.878 km
Speed
4.076 km/s
True Right ascension
11h 10m 39s
True Declination
0° 00' 00"
Sunlit
Object was in daylight at epoch
Visualization orbit readout
Latitude
Unknown
Longitude
Unknown
Altitude
Unknown
Speed
Unknown
Apparent Right ascension
Unknown
Apparent Declination
Unknown
Sunlit
N/A
Visualization observer readout
Local Sidereal Time
17:28:24
Azimuth
Unknown
Elevation
Unknown
Doppler factor
Unknown
Orbital elements
Apogee altitude
41,245.952 km
Perigee altitude
379.71 km
Semi-major axis
27,190.968 km
Eccentricity
0.75147
Inclination
21.3491°
RAAN
167.7942°
Arg. of periapsis
135.2831°
True anomaly
224.6774°
Mean anomaly
317.8697°
Eccentric anomaly
274.97608°
Mean motion
0.48407 °/min
Orbital period
743.7 mins
BSTAR
0.0018379
Loading maneuver chart data...
Computing Atmospheric mass density...
Loading historical data...
Loading historical data...
Loading historical data...
Loading historical data...
Loading historical data...
Loading historical data...
Loading historical data...

Documentation

Showing up to 5 results
|